{"data":{"norad_id":67081,"epoch":"2026-09-20T22:00:16.631424Z","epoch_age_seconds":42757,"freshness":"FRESH","line1":"1 67081U 25298G   26263.91685916  .00003344  00000+0  28785-3 0  9998","line2":"2 67081  70.0000 242.0950 0002984 274.7937  85.2882 14.98336939 42469","mean_motion":14.98336939,"eccentricity":0.0002984,"inclination_deg":70,"raan_deg":242.095,"arg_perigee_deg":274.7937,"mean_anomaly_deg":85.2882,"bstar":0.00028785,"rev_number":4246,"period_min":96.106554041247,"perigee_km":569.9605015866,"apogee_km":574.10836389766,"semimajor_km":6950.1714327421,"source":"CELESTRAK","updated_at":"2026-09-21T09:00:36.098498Z"}}